Вернуться в каталог

STARLINK-37331

АктивенСвязьSSO
NORAD 68738·PAYLOAD·🇺🇸 United States

Запущен Apr 15, 2026 с Vandenberg Space Force Base

Loading…

Ближайшие Пролёты (ближайшие 24 часа)

TLE

СвежийSource: CelesTrak SupGP

Эпоха: Sep 14, 2026, 23:15 UTC

1 68738C 26082L   26257.96923611  .00088345  00000+0  27434-2 0  2575
2 68738  97.2848 120.1688 0001858  93.7451 354.6866 15.33381967    14

Отслеживайте STARLINK-37331 в реальном времени с AllMySat

Download on the App Store